QPF
0.01 0.02 0.06 0.06 0.05 0.07 0.11 0.09 0.06 0.04 0.04 0.05 0.05 0.04 0.03 0.03 0.02 0.02 0.03 0.03 0.03 0.03 0.02 0.04 0.04 0.04 0.04 0.05 0.03 0.02 0.02 0.02 0.03 0.03 0.02 0.01 0.02 0.03 0.02 0.01 0.01 0.02 0.03
0.01 0.02 0.04 0.07 0.05 0.05 0.07 0.07 0.05 0.04 0.04 0.04 0.04 0.03 0.03 0.03 0.03 0.03 0.03 0.03 0.04 0.03 0.04 0.04 0.03 0.04 0.05 0.03 0.02 0.02 0.02 0.01 0.02 0.02 0.01 0.01 0.02 0.02 0.02 0.01 0.01 0.02 0.03
0.01 0.01 0.03 0.05 0.05 0.04 0.05 0.05 0.05 0.04 0.05 0.04 0.03 0.03 0.03 0.03 0.03 0.04 0.03 0.02 0.02 0.03 0.04 0.05 0.03 0.02 0.03 0.02 0.01 0.02 0.01 0.01 0.01 0.01 0.00 0.01 0.02 0.02 0.02 0.02 0.02 0.03 0.04
0.01 0.02 0.03 0.05 0.05 0.04 0.04 0.04 0.03 0.04 0.04 0.03 0.04 0.03 0.03 0.04 0.05 0.06 0.05 0.03 0.02 0.03 0.04 0.04 0.03 0.02 0.02 0.01 0.01 0.01 0.01 0.00 0.00 0.00 0.01 0.02 0.02 0.03 0.04 0.03 0.04 0.03 0.03
0.00 0.01 0.03 0.06 0.06 0.05 0.04 0.04 0.05 0.05 0.03 0.03 0.04 0.02 0.02 0.03 0.04 0.05 0.06 0.04 0.02 0.02 0.03 0.03 0.03 0.02 0.01 0.01 0.01 0.00 0.00 0.00 0.00 0.00 0.01 0.01 0.02 0.04 0.04 0.04 0.04 0.04 0.03
0.01 0.01 0.02 0.05 0.05 0.03 0.04 0.05 0.06 0.03 0.03 0.03 0.03 0.03 0.02 0.02 0.03 0.04 0.05 0.04 0.02 0.02 0.04 0.03 0.02 0.01 0.01 0.02 0.01 0.00 0.00 0.00 0.00 0.00 0.00 0.00 0.01 0.04 0.03 0.03 0.05 0.05 0.04
0.02 0.02 0.03 0.04 0.03 0.02 0.03 0.03 0.04 0.03 0.03 0.03 0.03 0.02 0.01 0.02 0.02 0.02 0.03 0.04 0.02 0.02 0.04 0.04 0.01 0.01 0.02 0.02 0.01 0.01 0.01 0.00 0.00 0.00 0.00 0.00 0.01 0.04 0.04 0.03 0.04 0.05 0.05
0.02 0.02 0.02 0.03 0.03 0.02 0.02 0.02 0.03 0.03 0.03 0.03 0.03 0.03 0.02 0.02 0.02 0.02 0.02 0.03 0.02 0.02 0.03 0.04 0.02 0.02 0.02 0.02 0.02 0.02 0.01 0.00 0.00 0.00 0.00 0.00 0.01 0.03 0.05 0.05 0.04 0.05 0.05
0.01 0.01 0.01 0.02 0.03 0.03 0.02 0.02 0.02 0.03 0.04 0.04 0.05 0.03 0.02 0.02 0.02 0.02 0.02 0.02 0.03 0.02 0.03 0.04 0.03 0.02 0.02 0.02 0.02 0.01 0.01 0.00 0.00 0.00 0.00 0.00 0.02 0.04 0.04 0.05 0.05 0.05 0.05
0.01 0.01 0.01 0.01 0.02 0.02 0.02 0.02 0.02 0.02 0.03 0.04 0.04 0.04 0.02 0.03 0.03 0.02 0.01 0.02 0.02 0.03 0.03 0.03 0.03 0.03 0.03 0.02 0.01 0.01 0.00 0.00 0.00 0.00 0.00 0.01 0.02 0.03 0.04 0.03 0.04 0.05 0.05
0.01 0.01 0.01 0.01 0.01 0.02 0.02 0.02 0.02 0.03 0.03 0.04 0.04 0.04 0.03 0.03 0.03 0.02 0.01 0.01 0.02 0.03 0.03 0.03 0.02 0.03 0.04 0.04 0.04 0.02 0.01 0.00 0.00 0.01 0.01 0.03 0.03 0.03 0.03 0.03 0.03 0.04 0.04
0.02 0.02 0.02 0.01 0.02 0.02 0.03 0.02 0.01 0.02 0.03 0.03 0.04 0.04 0.03 0.03 0.03 0.02 0.02 0.02 0.02 0.03 0.03 0.03 0.02 0.02 0.03 0.04 0.05 0.03 0.01 0.01 0.01 0.01 0.02 0.03 0.03 0.04 0.03 0.04 0.04 0.04 0.03
0.01 0.02 0.02 0.03 0.03 0.03 0.03 0.03 0.02 0.01 0.01 0.02 0.03 0.03 0.03 0.03 0.03 0.03 0.03 0.02 0.02 0.03 0.03 0.02 0.02 0.01 0.01 0.02 0.02 0.01 0.01 0.01 0.01 0.01 0.02 0.02 0.04 0.05 0.03 0.03 0.03 0.04 0.04
0.01 0.01 0.02 0.03 0.04 0.04 0.03 0.03 0.03 0.01 0.01 0.01 0.02 0.03 0.03 0.02 0.02 0.02 0.03 0.03 0.02 0.02 0.02 0.02 0.02 0.01 0.01 0.01 0.01 0.01 0.01 0.01 0.00 0.00 0.01 0.01 0.02 0.05 0.05 0.05 0.04 0.04 0.04
0.00 0.01 0.01 0.02 0.03 0.03 0.03 0.03 0.03 0.03 0.01 0.01 0.01 0.02 0.02 0.03 0.03 0.02 0.02 0.02 0.02 0.02 0.02 0.01 0.02 0.01 0.00 0.00 0.00 0.01 0.01 0.01 0.00 0.00 0.00 0.00 0.01 0.03 0.05 0.05 0.05 0.06 0.06
0.00 0.00 0.01 0.01 0.03 0.03 0.03 0.03 0.04 0.03 0.02 0.01 0.01 0.01 0.02 0.02 0.03 0.03 0.03 0.03 0.03 0.03 0.02 0.01 0.01 0.01 0.00 0.00 0.00 0.00 0.01 0.01 0.01 0.01 0.00 0.00 0.01 0.02 0.03 0.03 0.04 0.05 0.06
0.00 0.00 0.00 0.01 0.02 0.03 0.03 0.03 0.04 0.04 0.03 0.01 0.00 0.01 0.02 0.03 0.04 0.04 0.03 0.03 0.03 0.04 0.03 0.01 0.01 0.01 0.00 0.00 0.00 0.00 0.01 0.01 0.01 0.01 0.01 0.01 0.00 0.01 0.02 0.03 0.04 0.04 0.05
0.00 0.00 0.00 0.00 0.01 0.02 0.04 0.05 0.04 0.05 0.04 0.02 0.01 0.00 0.01 0.02 0.03 0.05 0.06 0.05 0.04 0.05 0.05 0.03 0.01 0.01 0.00 0.00 0.00 0.00 0.00 0.00 0.01 0.01 0.01 0.01 0.01 0.01 0.01 0.03 0.04 0.04 0.04
0.00 0.00 0.00 0.00 0.00 0.01 0.02 0.05 0.07 0.06 0.06 0.04 0.02 0.01 0.01 0.01 0.02 0.03 0.05 0.06 0.07 0.08 0.08 0.05 0.03 0.01 0.01 0.00 0.00 0.00 0.00 0.00 0.00 0.01 0.01 0.01 0.01 0.02 0.03 0.06 0.06 0.04 0.04
0.00 0.00 0.00 0.00 0.00 0.00 0.01 0.02 0.06 0.09 0.08 0.08 0.05 0.02 0.02 0.02 0.02 0.02 0.02 0.04 0.06 0.07 0.08 0.08 0.06 0.04 0.02 0.01 0.01 0.01 0.01 0.00 0.00 0.00 0.01 0.01 0.03 0.04 0.05 0.04 0.05 0.07 0.06
0.00 0.00 0.00 0.00 0.00 0.00 0.00 0.01 0.02 0.05 0.08 0.09 0.09 0.05 0.02 0.02 0.02 0.03 0.02 0.03 0.06 0.07 0.07 0.07 0.06 0.05 0.04 0.03 0.02 0.02 0.01 0.01 0.01 0.01 0.01 0.02 0.03 0.03 0.02 0.03 0.03 0.02 0.01
0.00 0.00 0.00 0.00 0.00 0.00 0.00 0.00 0.01 0.03 0.05 0.06 0.07 0.07 0.05 0.02 0.03 0.03 0.03 0.03 0.05 0.07 0.08 0.07 0.05 0.05 0.04 0.03 0.02 0.02 0.02 0.02 0.01 0.00 0.00 0.01 0.01 0.01 0.01 0.01 0.02 0.01 0.01
0.00 0.00 0.00 0.00 0.00 0.00 0.01 0.00 0.00 0.01 0.04 0.06 0.06 0.06 0.06 0.06 0.04 0.04 0.04 0.04 0.04 0.06 0.08 0.08 0.05 0.04 0.04 0.02 0.02 0.02 0.02 0.02 0.01 0.01 0.01 0.00 0.00 0.01 0.01 0.01 0.01 0.01 0.01
0.00 0.00 0.00 0.00 0.00 0.01 0.01 0.01 0.01 0.01 0.02 0.06 0.07 0.06 0.06 0.06 0.06 0.05 0.05 0.05 0.05 0.04 0.06 0.09 0.07 0.05 0.04 0.04 0.02 0.02 0.01 0.01 0.01 0.01 0.01 0.01 0.00 0.00 0.01 0.01 0.01 0.01 0.01
0.00 0.00 0.00 0.00 0.00 0.00 0.01 0.01 0.01 0.01 0.01 0.03 0.08 0.08 0.06 0.06 0.05 0.05 0.06 0.06 0.05 0.05 0.06 0.08 0.06 0.05 0.05 0.06 0.05 0.03 0.02 0.01 0.01 0.01 0.01 0.01 0.01 0.01 0.00 0.00 0.01 0.01 0.01
0.00 0.00 0.00 0.00 0.00 0.00 0.00 0.01 0.02 0.02 0.02 0.02 0.04 0.08 0.08 0.06 0.05 0.04 0.05 0.06 0.06 0.05 0.06 0.08 0.07 0.05 0.04 0.06 0.08 0.06 0.03 0.02 0.02 0.02 0.01 0.01 0.01 0.01 0.01 0.01 0.01 0.01 0.01
MSLP
1024.81 1024.56 1024.21 1023.82 1023.46 1023.16 1022.94 1022.77 1022.62 1022.44 1022.21 1021.90 1021.53 1021.15 1020.79 1020.48 1020.24 1020.07 1019.94 1019.81 1019.64 1019.42 1019.14 1018.81 1018.47 1018.14 1017.84 1017.59 1017.38 1017.19 1017.00 1016.82 1016.64 1016.47 1016.34 1016.25 1016.21 1016.20 1016.22 1016.23 1016.21 1016.15 1016.07
1024.92 1024.66 1024.30 1023.92 1023.59 1023.34 1023.17 1023.06 1022.95 1022.82 1022.62 1022.35 1022.02 1021.67 1021.34 1021.07 1020.86 1020.71 1020.60 1020.47 1020.30 1020.07 1019.77 1019.43 1019.07 1018.71 1018.39 1018.11 1017.85 1017.62 1017.39 1017.16 1016.93 1016.73 1016.56 1016.45 1016.38 1016.37 1016.38 1016.39 1016.38 1016.35 1016.29
1025.09 1024.79 1024.42 1024.04 1023.73 1023.51 1023.39 1023.33 1023.28 1023.20 1023.05 1022.82 1022.53 1022.22 1021.93 1021.68 1021.49 1021.35 1021.23 1021.08 1020.89 1020.64 1020.31 1019.95 1019.57 1019.20 1018.86 1018.56 1018.29 1018.03 1017.78 1017.53 1017.28 1017.04 1016.84 1016.69 1016.60 1016.55 1016.54 1016.53 1016.53 1016.50 1016.46
1025.32 1024.99 1024.61 1024.23 1023.94 1023.75 1023.66 1023.64 1023.63 1023.59 1023.49 1023.31 1023.06 1022.79 1022.53 1022.29 1022.11 1021.95 1021.80 1021.62 1021.39 1021.10 1020.75 1020.37 1019.97 1019.60 1019.27 1018.98 1018.72 1018.47 1018.23 1017.97 1017.71 1017.45 1017.21 1017.02 1016.87 1016.77 1016.71 1016.67 1016.65 1016.63 1016.60
1025.62 1025.28 1024.89 1024.53 1024.25 1024.08 1024.01 1024.01 1024.03 1024.03 1023.95 1023.81 1023.60 1023.35 1023.11 1022.88 1022.68 1022.50 1022.31 1022.09 1021.82 1021.49 1021.12 1020.72 1020.34 1019.98 1019.67 1019.41 1019.18 1018.97 1018.74 1018.50 1018.23 1017.95 1017.67 1017.42 1017.21 1017.04 1016.92 1016.83 1016.77 1016.73 1016.71
1025.95 1025.63 1025.26 1024.92 1024.66 1024.50 1024.45 1024.46 1024.49 1024.50 1024.44 1024.31 1024.12 1023.90 1023.67 1023.44 1023.22 1023.01 1022.79 1022.53 1022.22 1021.86 1021.48 1021.09 1020.72 1020.39 1020.13 1019.91 1019.72 1019.54 1019.34 1019.11 1018.84 1018.53 1018.21 1017.90 1017.61 1017.36 1017.16 1017.01 1016.90 1016.84 1016.81
1026.27 1025.99 1025.67 1025.37 1025.14 1025.01 1024.96 1024.97 1024.99 1024.99 1024.93 1024.81 1024.64 1024.43 1024.20 1023.98 1023.75 1023.52 1023.26 1022.97 1022.64 1022.28 1021.90 1021.52 1021.18 1020.90 1020.67 1020.49 1020.34 1020.19 1020.01 1019.78 1019.50 1019.16 1018.79 1018.42 1018.05 1017.71 1017.43 1017.21 1017.04 1016.94 1016.90
1026.54 1026.33 1026.08 1025.84 1025.66 1025.55 1025.51 1025.51 1025.52 1025.50 1025.44 1025.32 1025.16 1024.96 1024.75 1024.53 1024.30 1024.05 1023.78 1023.48 1023.14 1022.77 1022.41 1022.06 1021.75 1021.50 1021.31 1021.16 1021.03 1020.89 1020.71 1020.47 1020.16 1019.79 1019.38 1018.94 1018.50 1018.09 1017.73 1017.43 1017.21 1017.06 1016.99
1026.72 1026.59 1026.43 1026.27 1026.15 1026.09 1026.06 1026.06 1026.05 1026.02 1025.95 1025.84 1025.69 1025.51 1025.32 1025.11 1024.88 1024.64 1024.36 1024.05 1023.72 1023.37 1023.02 1022.70 1022.43 1022.20 1022.02 1021.88 1021.74 1021.59 1021.39 1021.12 1020.78 1020.38 1019.92 1019.43 1018.94 1018.47 1018.05 1017.69 1017.41 1017.22 1017.10
1026.79 1026.77 1026.71 1026.64 1026.60 1026.58 1026.58 1026.58 1026.57 1026.54 1026.47 1026.37 1026.25 1026.09 1025.92 1025.73 1025.52 1025.27 1025.00 1024.70 1024.37 1024.04 1023.71 1023.42 1023.16 1022.94 1022.76 1022.60 1022.43 1022.24 1022.00 1021.70 1021.33 1020.90 1020.41 1019.90 1019.37 1018.87 1018.40 1018.00 1017.67 1017.42 1017.25
1026.78 1026.85 1026.90 1026.93 1026.97 1027.01 1027.05 1027.07 1027.07 1027.05 1026.99 1026.92 1026.82 1026.69 1026.55 1026.37 1026.17 1025.94 1025.67 1025.37 1025.06 1024.74 1024.43 1024.14 1023.89 1023.66 1023.46 1023.27 1023.06 1022.82 1022.53 1022.19 1021.79 1021.34 1020.85 1020.33 1019.81 1019.29 1018.81 1018.37 1018.00 1017.71 1017.48
1026.69 1026.86 1027.01 1027.15 1027.27 1027.37 1027.45 1027.50 1027.52 1027.52 1027.49 1027.44 1027.37 1027.28 1027.16 1027.01 1026.82 1026.59 1026.32 1026.03 1025.72 1025.41 1025.11 1024.83 1024.57 1024.33 1024.09 1023.86 1023.60 1023.31 1022.98 1022.61 1022.20 1021.75 1021.27 1020.78 1020.27 1019.77 1019.29 1018.84 1018.44 1018.09 1017.81
1026.56 1026.83 1027.07 1027.30 1027.49 1027.65 1027.77 1027.85 1027.90 1027.92 1027.92 1027.91 1027.87 1027.81 1027.71 1027.58 1027.40 1027.18 1026.91 1026.62 1026.32 1026.01 1025.71 1025.43 1025.17 1024.91 1024.64 1024.37 1024.06 1023.73 1023.37 1022.99 1022.58 1022.15 1021.71 1021.26 1020.80 1020.33 1019.87 1019.42 1018.99 1018.60 1018.26
1026.42 1026.76 1027.08 1027.38 1027.63 1027.84 1028.00 1028.11 1028.19 1028.24 1028.27 1028.28 1028.27 1028.23 1028.16 1028.05 1027.88 1027.66 1027.41 1027.12 1026.83 1026.53 1026.24 1025.96 1025.69 1025.41 1025.12 1024.81 1024.48 1024.12 1023.75 1023.36 1022.97 1022.58 1022.19 1021.80 1021.40 1020.98 1020.55 1020.11 1019.67 1019.24 1018.84
1026.25 1026.65 1027.03 1027.39 1027.69 1027.93 1028.12 1028.26 1028.35 1028.43 1028.48 1028.52 1028.54 1028.53 1028.48 1028.38 1028.23 1028.03 1027.79 1027.52 1027.24 1026.96 1026.69 1026.42 1026.15 1025.86 1025.56 1025.23 1024.88 1024.51 1024.13 1023.76 1023.40 1023.06 1022.73 1022.40 1022.06 1021.69 1021.30 1020.88 1020.43 1019.98 1019.54
1026.05 1026.49 1026.92 1027.31 1027.64 1027.91 1028.12 1028.28 1028.40 1028.50 1028.58 1028.64 1028.68 1028.69 1028.66 1028.58 1028.46 1028.28 1028.07 1027.83 1027.58 1027.33 1027.08 1026.83 1026.57 1026.28 1025.98 1025.64 1025.29 1024.92 1024.55 1024.20 1023.88 1023.59 1023.31 1023.04 1022.75 1022.44 1022.09 1021.69 1021.25 1020.79 1020.32
1025.79 1026.27 1026.72 1027.13 1027.49 1027.78 1028.01 1028.19 1028.34 1028.46 1028.56 1028.64 1028.70 1028.74 1028.73 1028.68 1028.58 1028.44 1028.27 1028.08 1027.88 1027.67 1027.45 1027.22 1026.98 1026.71 1026.40 1026.07 1025.72 1025.36 1025.01 1024.68 1024.39 1024.13 1023.90 1023.67 1023.43 1023.16 1022.85 1022.48 1022.07 1021.62 1021.15
1025.44 1025.95 1026.43 1026.86 1027.23 1027.55 1027.81 1028.03 1028.20 1028.35 1028.48 1028.58 1028.66 1028.71 1028.72 1028.70 1028.64 1028.55 1028.43 1028.30 1028.15 1027.99 1027.81 1027.62 1027.39 1027.13 1026.84 1026.51 1026.17 1025.82 1025.48 1025.18 1024.90 1024.67 1024.46 1024.26 1024.05 1023.81 1023.53 1023.20 1022.82 1022.40 1021.95
1024.99 1025.53 1026.03 1026.48 1026.89 1027.24 1027.54 1027.80 1028.02 1028.21 1028.37 1028.49 1028.59 1028.65 1028.68 1028.69 1028.67 1028.63 1028.56 1028.49 1028.40 1028.29 1028.16 1028.00 1027.80 1027.55 1027.27 1026.95 1026.62 1026.28 1025.96 1025.66 1025.40 1025.16 1024.96 1024.77 1024.57 1024.35 1024.10 1023.80 1023.47 1023.09 1022.67
1024.45 1025.02 1025.54 1026.02 1026.47 1026.87 1027.23 1027.55 1027.83 1028.07 1028.26 1028.41 1028.51 1028.59 1028.64 1028.67 1028.68 1028.68 1028.67 1028.66 1028.62 1028.57 1028.48 1028.35 1028.17 1027.95 1027.68 1027.38 1027.06 1026.73 1026.42 1026.12 1025.86 1025.62 1025.40 1025.20 1024.99 1024.78 1024.54 1024.27 1023.98 1023.65 1023.29
1023.83 1024.42 1024.98 1025.49 1025.98 1026.45 1026.88 1027.27 1027.62 1027.92 1028.15 1028.33 1028.45 1028.53 1028.59 1028.63 1028.67 1028.71 1028.75 1028.78 1028.80 1028.79 1028.74 1028.64 1028.49 1028.29 1028.04 1027.76 1027.46 1027.15 1026.85 1026.56 1026.29 1026.04 1025.79 1025.56 1025.33 1025.10 1024.87 1024.62 1024.36 1024.08 1023.76
1023.15 1023.77 1024.35 1024.90 1025.45 1025.98 1026.49 1026.96 1027.39 1027.75 1028.03 1028.23 1028.37 1028.45 1028.51 1028.56 1028.62 1028.69 1028.76 1028.84 1028.91 1028.94 1028.93 1028.86 1028.74 1028.56 1028.34 1028.09 1027.82 1027.54 1027.26 1026.98 1026.71 1026.43 1026.16 1025.89 1025.63 1025.36 1025.11 1024.87 1024.63 1024.38 1024.11
1022.45 1023.09 1023.68 1024.26 1024.85 1025.44 1026.03 1026.58 1027.09 1027.51 1027.84 1028.07 1028.22 1028.31 1028.37 1028.43 1028.50 1028.59 1028.70 1028.82 1028.92 1028.99 1029.02 1028.98 1028.89 1028.75 1028.57 1028.36 1028.13 1027.90 1027.65 1027.39 1027.12 1026.83 1026.52 1026.21 1025.89 1025.59 1025.31 1025.05 1024.81 1024.58 1024.33
1021.75 1022.38 1022.98 1023.57 1024.19 1024.83 1025.47 1026.10 1026.67 1027.15 1027.53 1027.79 1027.96 1028.07 1028.14 1028.21 1028.29 1028.41 1028.55 1028.70 1028.84 1028.95 1029.00 1029.00 1028.95 1028.85 1028.71 1028.55 1028.38 1028.20 1028.00 1027.77 1027.51 1027.21 1026.88 1026.52 1026.15 1025.80 1025.47 1025.18 1024.92 1024.68 1024.45
1021.07 1021.68 1022.25 1022.84 1023.46 1024.12 1024.81 1025.49 1026.11 1026.65 1027.07 1027.37 1027.56 1027.69 1027.78 1027.87 1027.99 1028.13 1028.31 1028.50 1028.67 1028.81 1028.89 1028.93 1028.91 1028.85 1028.76 1028.66 1028.55 1028.43 1028.28 1028.09 1027.85 1027.55 1027.20 1026.80 1026.38 1025.97 1025.59 1025.26 1024.97 1024.72 1024.48
1020.41 1020.97 1021.51 1022.07 1022.67 1023.34 1024.05 1024.75 1025.42 1025.99 1026.45 1026.79 1027.02 1027.18 1027.31 1027.43 1027.59 1027.77 1027.99 1028.21 1028.42 1028.59 1028.70 1028.76 1028.77 1028.74 1028.70 1028.65 1028.60 1028.53 1028.44 1028.30 1028.09 1027.80 1027.43 1027.01 1026.55 1026.09 1025.65 1025.27 1024.95 1024.67 1024.42
Thickness
5653 5657 5661 5665 5668 5670 5672 5675 5677 5678 5680 5682 5684 5685 5686 5688 5690 5691 5692 5692 5693 5694 5696 5697 5698 5699 5700 5700 5701 5701 5702 5703 5703 5704 5704 5705 5706 5706 5707 5707 5707 5708 5708
5647 5652 5656 5660 5663 5666 5668 5670 5672 5674 5675 5677 5679 5681 5682 5684 5685 5687 5687 5688 5689 5690 5691 5693 5694 5695 5695 5696 5697 5697 5698 5698 5699 5700 5701 5701 5702 5703 5703 5703 5704 5704 5704
5644 5648 5652 5656 5658 5661 5663 5665 5667 5668 5670 5672 5674 5676 5677 5679 5681 5682 5683 5684 5685 5686 5687 5688 5689 5690 5691 5692 5692 5693 5694 5694 5695 5696 5696 5697 5698 5699 5700 5700 5700 5701 5701
5638 5642 5646 5650 5653 5655 5657 5659 5661 5663 5665 5667 5668 5670 5672 5674 5676 5677 5678 5679 5680 5681 5682 5683 5684 5685 5686 5687 5688 5688 5689 5690 5691 5691 5692 5693 5694 5695 5696 5696 5697 5697 5697
5633 5637 5640 5644 5647 5649 5651 5653 5655 5657 5659 5661 5663 5665 5667 5668 5670 5671 5673 5674 5675 5676 5677 5679 5680 5680 5681 5682 5683 5684 5685 5685 5686 5687 5688 5689 5690 5691 5692 5692 5693 5693 5693
5627 5630 5633 5637 5640 5643 5644 5646 5648 5651 5653 5655 5657 5659 5661 5662 5664 5666 5667 5668 5670 5671 5672 5673 5674 5675 5676 5677 5677 5678 5679 5680 5681 5682 5683 5684 5685 5686 5687 5688 5688 5689 5689
5620 5623 5626 5630 5633 5635 5637 5639 5641 5644 5646 5648 5650 5652 5654 5656 5658 5659 5661 5663 5664 5665 5667 5668 5669 5670 5671 5671 5672 5673 5674 5675 5676 5677 5678 5679 5681 5682 5683 5684 5684 5684 5685
5613 5616 5618 5621 5624 5627 5630 5632 5634 5636 5638 5641 5643 5644 5646 5648 5651 5653 5655 5656 5658 5659 5661 5662 5663 5664 5665 5666 5667 5667 5668 5669 5670 5671 5673 5674 5676 5677 5679 5679 5680 5680 5680
5605 5608 5610 5613 5616 5619 5621 5624 5626 5629 5631 5633 5635 5637 5639 5641 5643 5646 5648 5650 5651 5653 5654 5656 5657 5658 5659 5660 5661 5661 5662 5663 5664 5666 5667 5669 5671 5672 5674 5674 5675 5675 5675
5597 5600 5602 5604 5607 5610 5613 5615 5617 5620 5622 5625 5627 5629 5631 5634 5636 5638 5640 5642 5644 5646 5648 5650 5651 5652 5653 5654 5655 5655 5656 5657 5658 5660 5661 5663 5665 5667 5669 5669 5670 5670 5671
5589 5591 5593 5595 5598 5601 5603 5605 5608 5611 5613 5616 5619 5621 5624 5626 5628 5630 5632 5635 5637 5639 5641 5642 5644 5645 5646 5647 5648 5649 5650 5651 5652 5654 5655 5657 5660 5662 5663 5664 5665 5665 5666
5579 5581 5583 5586 5588 5591 5594 5596 5599 5601 5604 5607 5610 5613 5615 5617 5619 5621 5624 5627 5629 5631 5633 5635 5636 5638 5639 5640 5641 5642 5644 5645 5646 5647 5649 5651 5653 5656 5657 5658 5659 5660 5660
5568 5570 5573 5576 5579 5581 5584 5586 5589 5591 5594 5597 5600 5603 5606 5609 5611 5613 5616 5618 5621 5623 5625 5627 5628 5630 5631 5632 5633 5635 5636 5637 5639 5640 5642 5644 5646 5649 5650 5651 5652 5653 5654
5559 5561 5563 5566 5569 5571 5574 5576 5578 5581 5584 5587 5590 5593 5596 5599 5601 5603 5606 5608 5611 5613 5616 5618 5619 5621 5623 5624 5626 5627 5628 5630 5632 5633 5635 5637 5639 5641 5643 5644 5645 5646 5648
5550 5552 5554 5556 5559 5561 5564 5566 5568 5570 5573 5575 5578 5582 5585 5588 5591 5593 5596 5599 5601 5604 5606 5608 5610 5612 5614 5616 5617 5619 5621 5622 5624 5626 5628 5629 5631 5633 5635 5636 5638 5639 5641
5541 5542 5544 5546 5549 5551 5554 5556 5557 5559 5562 5564 5567 5571 5574 5577 5580 5583 5586 5589 5591 5594 5596 5599 5601 5602 5604 5606 5608 5610 5612 5614 5616 5618 5620 5621 5623 5625 5626 5628 5630 5631 5633
5531 5532 5535 5537 5538 5541 5543 5545 5547 5549 5551 5554 5557 5560 5563 5566 5568 5572 5575 5577 5580 5583 5586 5589 5591 5593 5595 5597 5598 5600 5602 5605 5607 5609 5611 5613 5614 5616 5617 5619 5621 5623 5625
5521 5523 5525 5526 5528 5530 5531 5533 5535 5538 5541 5543 5545 5548 5551 5554 5557 5560 5562 5566 5568 5572 5575 5578 5580 5582 5584 5586 5588 5590 5592 5595 5597 5599 5601 5603 5604 5606 5608 5610 5612 5614 5616
5511 5512 5513 5514 5516 5518 5520 5522 5524 5526 5529 5530 5533 5535 5538 5541 5544 5547 5550 5553 5556 5559 5562 5566 5568 5570 5572 5574 5577 5580 5582 5584 5586 5589 5591 5592 5594 5596 5598 5600 5602 5604 5606
5500 5501 5502 5503 5504 5506 5509 5511 5513 5514 5516 5517 5519 5522 5525 5528 5531 5534 5537 5540 5543 5545 5548 5552 5554 5556 5558 5561 5565 5569 5571 5574 5576 5578 5579 5581 5583 5584 5586 5589 5591 5593 5595
5489 5489 5490 5491 5492 5494 5496 5497 5499 5500 5502 5504 5505 5507 5510 5514 5517 5520 5523 5526 5528 5531 5533 5536 5540 5542 5544 5547 5551 5555 5560 5562 5564 5566 5567 5569 5571 5573 5574 5576 5578 5580 5583
5477 5477 5478 5478 5479 5480 5482 5483 5484 5485 5487 5489 5491 5493 5495 5498 5502 5505 5508 5510 5513 5516 5519 5521 5524 5526 5528 5530 5532 5537 5543 5549 5551 5554 5554 5556 5558 5559 5561 5563 5565 5567 5570
5466 5465 5466 5465 5466 5467 5468 5469 5471 5472 5473 5475 5476 5478 5481 5483 5486 5489 5492 5495 5497 5499 5502 5504 5507 5509 5511 5513 5514 5517 5521 5529 5533 5540 5541 5542 5543 5545 5547 5549 5551 5553 5556
5455 5454 5453 5453 5453 5453 5454 5454 5455 5456 5456 5457 5459 5462 5465 5468 5471 5474 5476 5479 5481 5483 5485 5487 5489 5491 5493 5496 5497 5499 5501 5505 5510 5521 5527 5528 5529 5530 5532 5534 5536 5539 5542
5444 5442 5441 5440 5440 5439 5439 5440 5440 5440 5441 5442 5444 5447 5450 5453 5456 5458 5460 5462 5464 5466 5467 5469 5471 5473 5475 5477 5480 5482 5484 5487 5490 5496 5507 5512 5514 5515 5517 5519 5521 5524 5527
5433 5431 5429 5428 5428 5427 5426 5426 5426 5426 5427 5428 5430 5432 5435 5437 5440 5442 5444 5445 5447 5448 5450 5451 5454 5456 5458 5460 5462 5465 5467 5469 5474 5476 5484 5491 5497 5502 5502 5504 5506 5509 5512